Simultaneous Nadir Overpasses (SNOs) Predictions

Prediction of SNOs over PacNW region [( 10.00, 139.50) to ( 22.70, 165.60)] between AQUA and NPP Satellites:

Table of predicted SNOs over PacNW region for the next 30.0 days since TLE Epoch: 10/14/2012
Index Date (AQUA) Time (AQUA) AQUA Lat,Lon Date (NPP) Time (NPP) NPP Lat,Lon Distance(km) Time Diff (sec)
1 10/17/2012 15:10:31 19.67, 159.10 10/17/2012 15:09:41 20.17, 156.55 273.30 50
2 10/25/2012 15:58:58 22.62, 147.48 10/25/2012 15:59:47 23.26, 144.56 306.64 49
3 11/02/2012 15:09:06 22.61, 159.94 11/02/2012 15:09:20 23.25, 157.17 292.41 14




NCC Satellite Simultaneous Nadir Overpasses (SNOs) Prediction Service
